| time (UTC) | temp C | wind direction | speed KPH | gust KPH | rain 1hr cm | rain 24hr cm | rain mn cm | humidity % | barometer mb |
| 20260506224302 | 7 | 4 | 0.0 | 0.0 | 0.00 | 1.19 | 0.00 | 95 | 1009.0 |
| 20260506223802 | 7 | 4 | 0.0 | 0.0 | 0.00 | 1.22 | 0.00 | 95 | 1008.9 |
| 20260506223231 | 8 | 4 | 0.0 | 3.2 | 0.00 | 1.22 | 0.00 | 95 | 1008.9 |
| 20260506222730 | 8 | 4 | 0.0 | 3.2 | 0.00 | 1.24 | 0.00 | 95 | 1008.8 |
| 20260506222218 | 8 | 15 | 1.6 | 6.4 | 0.00 | 1.24 | 0.00 | 95 | 1008.8 |
| 20260506221712 | 8 | 18 | 1.6 | 6.4 | 0.00 | 1.27 | 0.00 | 95 | 1008.7 |
| 20260506221427 | 8 | 39 | 0.0 | 1.6 | 0.00 | 1.27 | 0.00 | 95 | 1008.7 |
| 20260506220631 | 8 | 1 | 0.0 | 0.0 | 0.00 | 1.27 | 0.00 | 94 | 1008.6 |
| 20260506220131 | 8 | 1 | 0.0 | 1.6 | 0.00 | 1.27 | 0.00 | 94 | 1008.5 |
| 20260506215604 | 8 | 23 | 0.0 | 1.6 | 0.00 | 1.27 | 1.27 | 94 | 1008.5 |
| 20260506215103 | 8 | 23 | 0.0 | 3.2 | 0.00 | 1.30 | 1.27 | 94 | 1008.5 |
| 20260506214603 | 8 | 8 | 0.0 | 3.2 | 0.00 | 1.30 | 1.27 | 94 | 1008.3 |
| 20260506214031 | 8 | 32 | 0.0 | 3.2 | 0.00 | 1.32 | 1.27 | 94 | 1008.4 |
| 20260506213748 | 8 | 33 | 1.6 | 6.4 | 0.00 | 1.32 | 1.27 | 94 | 1008.3 |
| 20260506213003 | 8 | 33 | 1.6 | 6.4 | 0.00 | 1.35 | 1.27 | 94 | 1008.3 |
| 20260506212431 | 8 | 20 | 1.6 | 4.8 | 0.00 | 1.35 | 1.27 | 95 | 1008.3 |
| 20260506211932 | 8 | 47 | 1.6 | 8.0 | 0.00 | 1.37 | 1.27 | 95 | 1008.3 |
| 20260506211427 | 8 | 43 | 1.6 | 8.0 | 0.00 | 1.37 | 1.27 | 95 | 1008.3 |
| 20260506210919 | 8 | 1 | 0.0 | 3.2 | 0.00 | 1.37 | 1.27 | 95 | 1008.3 |
| 20260506210403 | 8 | 1 | 0.0 | 1.6 | 0.00 | 1.40 | 1.27 | 95 | 1008.3 |
| 20260506205830 | 8 | 1 | 0.0 | 1.6 | 0.00 | 1.40 | 1.27 | 95 | 1008.3 |
| 20260506205331 | 8 | 1 | 0.0 | 3.2 | 0.00 | 1.42 | 1.27 | 95 | 1008.3 |
| 20260506205058 | 8 | 1 | 0.0 | 3.2 | 0.00 | 1.42 | 1.27 | 95 | 1008.3 |
| 20260506204325 | 8 | 1 | 1.6 | 6.4 | 0.00 | 1.45 | 1.27 | 95 | 1008.2 |
| 20260506203803 | 8 | 347 | 1.6 | 6.4 | 0.00 | 1.45 | 1.27 | 95 | 1008.2 |
| 20260506203302 | 8 | 10 | 1.6 | 4.8 | 0.00 | 1.45 | 1.27 | 95 | 1008.2 |
| 20260506202803 | 8 | 23 | 1.6 | 4.8 | 0.00 | 1.47 | 1.27 | 95 | 1008.2 |
| 20260506202306 | 8 | 3 | 1.6 | 6.4 | 0.00 | 1.47 | 1.27 | 95 | 1008.1 |
| 20260506201802 | 8 | 4 | 1.6 | 6.4 | 0.00 | 1.50 | 1.27 | 95 | 1008.1 |
| 20260506201302 | 8 | 1 | 1.6 | 8.0 | 0.00 | 1.50 | 1.27 | 95 | 1008.1 |
| 20260506200751 | 8 | 359 | 0.0 | 8.0 | 0.00 | 1.50 | 1.27 | 95 | 1008.1 |
| 20260506200233 | 8 | 1 | 1.6 | 6.4 | 0.00 | 1.50 | 1.27 | 95 | 1008.1 |
| 20260506195731 | 8 | 8 | 0.0 | 4.8 | 0.00 | 1.52 | 1.27 | 95 | 1008.1 |
| 20260506195230 | 8 | 0 | 0.0 | 0.0 | 0.00 | 1.52 | 1.27 | 95 | 1008.0 |
| 20260506194729 | 8 | 0 | 0.0 | 3.2 | 0.00 | 1.52 | 1.27 | 95 | 1007.9 |
| 20260506194226 | 8 | 0 | 1.6 | 4.8 | 0.00 | 1.52 | 1.27 | 95 | 1007.9 |
| 20260506193704 | 8 | 3 | 1.6 | 4.8 | 0.00 | 1.55 | 1.27 | 95 | 1007.9 |
| 20260506193203 | 8 | 44 | 1.6 | 3.2 | 0.00 | 1.55 | 1.27 | 95 | 1007.8 |
| 20260506192647 | 8 | 1 | 1.6 | 6.4 | 0.00 | 1.55 | 1.27 | 95 | 1007.7 |
| 20260506192133 | 8 | 2 | 1.6 | 6.4 | 0.00 | 1.55 | 1.27 | 95 | 1007.7 |
| 20260506191632 | 8 | 41 | 1.6 | 6.4 | 0.00 | 1.55 | 1.27 | 95 | 1007.6 |
| 20260506191130 | 8 | 51 | 3.2 | 6.4 | 0.00 | 1.55 | 1.27 | 94 | 1007.6 |
| 20260506190632 | 8 | 7 | 3.2 | 4.8 | 0.00 | 1.57 | 1.27 | 94 | 1007.6 |
| 20260506190326 | 8 | 57 | 1.6 | 6.4 | 0.00 | 1.57 | 1.27 | 94 | 1007.6 |
| 20260506190039 | 8 | 6 | 1.6 | 4.8 | 0.00 | 1.57 | 1.27 | 94 | 1007.5 |
| 20260506190030 | 8 | 359 | 1.6 | 6.4 | 0.00 | 1.57 | 1.27 | 94 | 1007.5 |
| 20260506184538 | 8 | 20 | 1.6 | 4.8 | 0.00 | 1.57 | 1.27 | 94 | 1007.4 |
| 20260506184251 | 8 | 7 | 1.6 | 9.7 | 0.00 | 1.57 | 1.27 | 94 | 1007.4 |
| 20260506183531 | 9 | 1 | 1.6 | 9.7 | 0.00 | 1.57 | 1.27 | 93 | 1007.4 |
| 20260506183027 | 9 | 23 | 1.6 | 4.8 | 0.00 | 1.57 | 1.27 | 93 | 1007.3 |
| 20260506182507 | 9 | 15 | 1.6 | 4.8 | 0.00 | 1.57 | 1.27 | 93 | 1007.2 |
| 20260506182008 | 9 | 22 | 1.6 | 6.4 | 0.00 | 1.57 | 1.27 | 93 | 1007.1 |
| 20260506181437 | 9 | 8 | 1.6 | 6.4 | 0.00 | 1.57 | 1.27 | 93 | 1007.1 |
| 20260506180935 | 9 | 333 | 1.6 | 6.4 | 0.00 | 1.57 | 1.27 | 93 | 1007.1 |
| 20260506180432 | 9 | 22 | 1.6 | 6.4 | 0.00 | 1.57 | 1.27 | 93 | 1007.0 |
| 20260506175930 | 9 | 343 | 1.6 | 4.8 | 0.00 | 1.57 | 1.27 | 93 | 1006.9 |
| 20260506175430 | 9 | 34 | 1.6 | 4.8 | 0.00 | 1.57 | 1.27 | 93 | 1006.9 |
| 20260506174932 | 9 | 63 | 3.2 | 9.7 | 0.00 | 1.57 | 1.27 | 93 | 1006.9 |
| 20260506174430 | 9 | 6 | 3.2 | 9.7 | 0.00 | 1.57 | 1.27 | 92 | 1006.8 |
| 20260506173930 | 9 | 1 | 3.2 | 9.7 | 0.00 | 1.57 | 1.27 | 92 | 1006.7 |
| 20260506173655 | 9 | 1 | 3.2 | 8.0 | 0.00 | 1.57 | 1.27 | 92 | 1006.7 |
| 20260506173156 | 9 | 65 | 3.2 | 8.0 | 0.00 | 1.57 | 1.27 | 92 | 1006.6 |
| 20260506172425 | 9 | 354 | 1.6 | 8.0 | 0.00 | 1.57 | 1.27 | 92 | 1006.5 |
| 20260506171905 | 9 | 141 | 1.6 | 6.4 | 0.00 | 1.57 | 1.27 | 92 | 1006.5 |
| 20260506171402 | 10 | 23 | 1.6 | 6.4 | 0.00 | 1.57 | 1.27 | 91 | 1006.4 |
| 20260506170902 | 10 | 37 | 1.6 | 4.8 | 0.00 | 1.57 | 1.27 | 92 | 1006.4 |
| 20260506170331 | 10 | 72 | 0.0 | 4.8 | 0.00 | 1.57 | 1.27 | 92 | 1006.4 |
| 20260506165830 | 10 | 8 | 0.0 | 3.2 | 0.00 | 1.57 | 1.27 | 91 | 1006.4 |
| 20260506165557 | 10 | 345 | 0.0 | 3.2 | 0.00 | 1.57 | 1.27 | 91 | 1006.4 |
| 20260506164805 | 10 | 7 | 1.6 | 4.8 | 0.00 | 1.57 | 1.27 | 91 | 1006.3 |
| 20260506164307 | 10 | 78 | 1.6 | 6.4 | 0.00 | 1.57 | 1.27 | 91 | 1006.3 |
| 20260506163732 | 10 | 1 | 1.6 | 6.4 | 0.00 | 1.57 | 1.27 | 91 | 1006.3 |
| 20260506163231 | 10 | 1 | 3.2 | 6.4 | 0.00 | 1.57 | 1.27 | 91 | 1006.3 |
| 20260506162725 | 10 | 56 | 3.2 | 6.4 | 0.00 | 1.57 | 1.27 | 91 | 1006.3 |
| 20260506162445 | 10 | 347 | 3.2 | 9.7 | 0.00 | 1.57 | 1.27 | 91 | 1006.2 |
| 20260506161927 | 10 | 57 | 3.2 | 9.7 | 0.00 | 1.57 | 1.27 | 91 | 1006.2 |
| 20260506161202 | 10 | 11 | 4.8 | 11.3 | 0.00 | 1.57 | 1.27 | 91 | 1006.2 |
| 20260506160652 | 10 | 1 | 4.8 | 11.3 | 0.00 | 1.57 | 1.27 | 92 | 1006.1 |
| 20260506160132 | 10 | 38 | 3.2 | 9.7 | 0.00 | 1.57 | 1.27 | 92 | 1006.1 |
| 20260506155629 | 9 | 354 | 3.2 | 8.0 | 0.00 | 1.57 | 1.27 | 92 | 1006.1 |
| 20260506155104 | 9 | 15 | 3.2 | 8.0 | 0.00 | 1.57 | 1.27 | 92 | 1006.1 |
| 20260506154603 | 9 | 11 | 4.8 | 12.9 | 0.00 | 1.57 | 1.27 | 92 | 1006.1 |
| 20260506154032 | 9 | 358 | 4.8 | 12.9 | 0.00 | 1.57 | 1.27 | 92 | 1006.1 |
| 20260506153529 | 9 | 357 | 4.8 | 9.7 | 0.00 | 1.57 | 1.27 | 92 | 1006.1 |
| 20260506153032 | 9 | 9 | 3.2 | 11.3 | 0.00 | 1.57 | 1.27 | 92 | 1006.1 |
| 20260506152524 | 9 | 8 | 4.8 | 11.3 | 0.00 | 1.57 | 1.27 | 93 | 1006.1 |
| 20260506152019 | 9 | 13 | 4.8 | 11.3 | 0.00 | 1.57 | 1.27 | 93 | 1006.1 |
| 20260506151504 | 9 | 2 | 3.2 | 11.3 | 0.00 | 1.57 | 1.27 | 93 | 1006.0 |
| 20260506150937 | 9 | 257 | 3.2 | 11.3 | 0.00 | 1.57 | 1.27 | 93 | 1006.0 |
| 20260506150433 | 9 | 2 | 3.2 | 11.3 | 0.00 | 1.57 | 1.27 | 93 | 1006.0 |
| 20260506150202 | 9 | 1 | 1.6 | 9.7 | 0.00 | 1.57 | 1.27 | 93 | 1005.9 |
| 20260506145656 | 9 | 319 | 1.6 | 6.4 | 0.00 | 1.57 | 1.27 | 93 | 1005.9 |
| 20260506145153 | 9 | 13 | 1.6 | 9.7 | 0.00 | 1.57 | 1.27 | 93 | 1005.9 |
| 20260506144432 | 9 | 23 | 3.2 | 9.7 | 0.00 | 1.57 | 1.27 | 93 | 1005.9 |
| 20260506143930 | 9 | 40 | 4.8 | 11.3 | 0.00 | 1.57 | 1.27 | 93 | 1005.9 |
| 20260506143430 | 9 | 359 | 4.8 | 11.3 | 0.00 | 1.57 | 1.27 | 93 | 1005.9 |
| 20260506142930 | 9 | 0 | 3.2 | 9.7 | 0.00 | 1.57 | 1.27 | 94 | 1005.9 |
| 20260506142436 | 9 | 287 | 3.2 | 12.9 | 0.00 | 1.57 | 1.27 | 94 | 1005.9 |
| 20260506141932 | 9 | 21 | 3.2 | 9.7 | 0.00 | 1.57 | 1.27 | 94 | 1005.9 |
| 20260506141433 | 9 | 62 | 3.2 | 9.7 | 0.00 | 1.57 | 1.27 | 95 | 1006.0 |
| 20260506141132 | 9 | 8 | 3.2 | 8.0 | 0.00 | 1.57 | 1.27 | 95 | 1006.0 |
| 20260506140626 | 9 | 10 | 3.2 | 8.0 | 0.00 | 1.57 | 1.27 | 95 | 1005.9 |
| 20260506135902 | 9 | 357 | 3.2 | 8.0 | 0.00 | 1.57 | 1.27 | 95 | 1005.9 |
| 20260506135402 | 9 | 41 | 1.6 | 6.4 | 0.00 | 1.57 | 1.27 | 95 | 1005.9 |
| 20260506134903 | 9 | 0 | 1.6 | 3.2 | 0.00 | 1.57 | 1.27 | 95 | 1005.9 |
| 20260506134332 | 9 | 24 | 1.6 | 9.7 | 0.00 | 1.57 | 1.27 | 95 | 1005.9 |
| 20260506133832 | 9 | 345 | 3.2 | 8.0 | 0.00 | 1.57 | 1.27 | 95 | 1005.9 |
| 20260506133303 | 9 | 5 | 3.2 | 9.7 | 0.03 | 1.57 | 1.27 | 95 | 1005.9 |
| 20260506132802 | 9 | 41 | 3.2 | 9.7 | 0.03 | 1.57 | 1.27 | 95 | 1005.8 |
| 20260506132453 | 9 | 359 | 3.2 | 11.3 | 0.03 | 1.57 | 1.27 | 95 | 1005.8 |
| 20260506131730 | 9 | 0 | 3.2 | 11.3 | 0.03 | 1.57 | 1.27 | 95 | 1005.8 |
| 20260506131452 | 9 | 9 | 3.2 | 9.7 | 0.03 | 1.57 | 1.27 | 95 | 1005.8 |
| 20260506130730 | 9 | 40 | 3.2 | 9.7 | 0.03 | 1.57 | 1.27 | 95 | 1005.7 |
| 20260506130213 | 9 | 25 | 3.2 | 8.0 | 0.05 | 1.57 | 1.27 | 95 | 1005.6 |
| 20260506125703 | 9 | 1 | 3.2 | 8.0 | 0.05 | 1.57 | 1.27 | 95 | 1005.6 |
| 20260506125202 | 9 | 309 | 3.2 | 12.9 | 0.05 | 1.57 | 1.27 | 95 | 1005.6 |
| 20260506124645 | 9 | 16 | 3.2 | 12.9 | 0.05 | 1.57 | 1.27 | 95 | 1005.5 |
| 20260506124359 | 9 | 30 | 3.2 | 11.3 | 0.05 | 1.57 | 1.27 | 95 | 1005.5 |
| 20260506123856 | 9 | 11 | 4.8 | 11.3 | 0.03 | 1.55 | 1.27 | 95 | 1005.5 |
| 20260506123131 | 9 | 8 | 4.8 | 11.3 | 0.03 | 1.55 | 1.27 | 95 | 1005.5 |
| 20260506122630 | 9 | 354 | 4.8 | 11.3 | 0.03 | 1.55 | 1.27 | 95 | 1005.5 |
| 20260506122103 | 9 | 10 | 3.2 | 8.0 | 0.05 | 1.55 | 1.27 | 95 | 1005.4 |
| 20260506121602 | 9 | 297 | 3.2 | 14.5 | 0.05 | 1.55 | 1.27 | 96 | 1005.4 |
| 20260506121032 | 9 | 346 | 4.8 | 14.5 | 0.05 | 1.55 | 1.27 | 96 | 1005.3 |
| 20260506120531 | 9 | 24 | 4.8 | 11.3 | 0.05 | 1.55 | 1.27 | 95 | 1005.3 |
| 20260506120257 | 9 | 3 | 4.8 | 12.9 | 0.05 | 1.55 | 1.24 | 95 | 1005.3 |
| 20260506115529 | 9 | 281 | 3.2 | 12.9 | 0.05 | 1.55 | 1.24 | 96 | 1005.2 |
| 20260506115026 | 9 | 343 | 4.8 | 14.5 | 0.05 | 1.55 | 1.24 | 96 | 1005.1 |
| 20260506114520 | 9 | 1 | 6.4 | 14.5 | 0.05 | 1.55 | 1.24 | 96 | 1005.1 |
| 20260506114226 | 9 | 49 | 6.4 | 17.7 | 0.05 | 1.55 | 1.24 | 96 | 1005.0 |
| 20260506113504 | 9 | 298 | 4.8 | 17.7 | 0.05 | 1.55 | 1.24 | 96 | 1005.0 |
| 20260506112932 | 9 | 0 | 4.8 | 11.3 | 0.08 | 1.55 | 1.24 | 96 | 1005.0 |
| 20260506112430 | 9 | 3 | 4.8 | 11.3 | 0.08 | 1.55 | 1.24 | 96 | 1004.9 |
| 20260506112153 | 9 | 46 | 4.8 | 11.3 | 0.05 | 1.52 | 1.22 | 96 | 1004.9 |
| 20260506111430 | 10 | 340 | 3.2 | 11.3 | 0.08 | 1.52 | 1.22 | 96 | 1004.9 |
| 20260506110931 | 10 | 8 | 3.2 | 11.3 | 0.05 | 1.50 | 1.19 | 96 | 1004.9 |
| 20260506110405 | 10 | 296 | 3.2 | 11.3 | 0.05 | 1.50 | 1.19 | 96 | 1004.9 |
| 20260506105904 | 10 | 32 | 3.2 | 8.0 | 0.05 | 1.50 | 1.19 | 97 | 1004.8 |
| 20260506105332 | 10 | 1 | 3.2 | 8.0 | 0.05 | 1.50 | 1.19 | 97 | 1004.8 |
| 20260506104820 | 10 | 64 | 1.6 | 8.0 | 0.05 | 1.47 | 1.17 | 97 | 1004.8 |
| 20260506104302 | 10 | 288 | 1.6 | 6.4 | 0.05 | 1.47 | 1.17 | 97 | 1004.8 |
| 20260506103802 | 10 | 271 | 1.6 | 8.0 | 0.05 | 1.47 | 1.17 | 97 | 1004.8 |
| 20260506103303 | 10 | 330 | 1.6 | 8.0 | 0.05 | 1.45 | 1.17 | 97 | 1004.8 |
| 20260506102802 | 10 | 248 | 3.2 | 11.3 | 0.08 | 1.45 | 1.17 | 97 | 1004.7 |
| 20260506102305 | 10 | 1 | 3.2 | 11.3 | 0.08 | 1.45 | 1.17 | 97 | 1004.7 |
| 20260506101731 | 10 | 321 | 3.2 | 11.3 | 0.10 | 1.45 | 1.14 | 97 | 1004.7 |
| 20260506101239 | 10 | 1 | 1.6 | 11.3 | 0.08 | 1.45 | 1.14 | 97 | 1004.7 |
| 20260506100736 | 10 | 269 | 1.6 | 6.4 | 0.10 | 1.45 | 1.14 | 97 | 1004.6 |
| 20260506100230 | 10 | 21 | 3.2 | 6.4 | 0.10 | 1.45 | 1.14 | 97 | 1004.6 |
| 20260506095731 | 10 | 12 | 1.6 | 8.0 | 0.10 | 1.45 | 1.14 | 97 | 1004.5 |
| 20260506095709 | 10 | 333 | 1.6 | 6.4 | 0.08 | 1.42 | 1.12 | 97 | 1004.5 |
| 20260506094721 | 10 | 291 | 3.2 | 11.3 | 0.10 | 1.42 | 1.12 | 97 | 1004.5 |
| 20260506094203 | 10 | 286 | 3.2 | 11.3 | 0.10 | 1.42 | 1.12 | 97 | 1004.5 |
| 20260506093702 | 10 | 309 | 3.2 | 8.0 | 0.10 | 1.42 | 1.09 | 97 | 1004.5 |
| 20260506093137 | 10 | 1 | 3.2 | 9.7 | 0.10 | 1.40 | 1.09 | 97 | 1004.4 |
| 20260506092632 | 10 | 2 | 1.6 | 9.7 | 0.08 | 1.37 | 1.09 | 97 | 1004.3 |
| 20260506092124 | 10 | 329 | 1.6 | 6.4 | 0.05 | 1.37 | 1.07 | 97 | 1004.4 |
| 20260506091604 | 9 | 27 | 1.6 | 3.2 | 0.05 | 1.37 | 1.07 | 97 | 1004.4 |
| 20260506091037 | 9 | 52 | 1.6 | 8.0 | 0.08 | 1.37 | 1.07 | 97 | 1004.4 |
| 20260506090754 | 9 | 41 | 3.2 | 6.4 | 0.05 | 1.35 | 1.04 | 97 | 1004.3 |
| 20260506090033 | 9 | 1 | 3.2 | 11.3 | 0.05 | 1.35 | 1.04 | 97 | 1004.3 |
| 20260506085527 | 9 | 0 | 3.2 | 9.7 | 0.05 | 1.35 | 1.04 | 97 | 1004.2 |
| 20260506085022 | 9 | 359 | 3.2 | 9.7 | 0.08 | 1.35 | 1.04 | 97 | 1004.2 |
| 20260506084521 | 9 | 53 | 3.2 | 9.7 | 0.05 | 1.32 | 1.02 | 97 | 1004.2 |
| 20260506084018 | 9 | 353 | 3.2 | 9.7 | 0.05 | 1.32 | 1.02 | 97 | 1004.1 |
| 20260506083511 | 9 | 238 | 3.2 | 9.7 | 0.05 | 1.32 | 0.99 | 97 | 1004.1 |
| 20260506083112 | 9 | 6 | 3.2 | 11.3 | 0.05 | 1.27 | 0.99 | 97 | 1003.9 |
| 20260506083108 | 9 | 6 | 3.2 | 11.3 | 0.05 | 1.30 | 0.99 | 97 | 1004.0 |
| 20260506083101 | 9 | 1 | 1.6 | 11.3 | 0.05 | 1.30 | 0.99 | 97 | 1004.0 |
| 20260506082137 | 9 | 16 | 3.2 | 9.7 | 0.05 | 1.30 | 0.99 | 97 | 1003.9 |
| 20260506081151 | 9 | 51 | 3.2 | 9.7 | 0.05 | 1.27 | 0.99 | 97 | 1003.8 |
| 20260506080432 | 9 | 0 | 3.2 | 9.7 | 0.05 | 1.27 | 0.99 | 97 | 1003.8 |
| 20260506073332 | 9 | 20 | 4.8 | 12.9 | 0.10 | 1.27 | 0.97 | 97 | 1003.7 |
| 20260506073046 | 9 | 1 | 3.2 | 11.3 | 0.13 | 1.27 | 0.94 | 97 | 1003.6 |
| 20260506072320 | 9 | 32 | 3.2 | 11.3 | 0.10 | 1.24 | 0.94 | 97 | 1003.5 |
| 20260506072022 | 9 | 1 | 3.2 | 11.3 | 0.10 | 1.24 | 0.94 | 97 | 1003.5 |
| 20260506071303 | 9 | 37 | 3.2 | 9.7 | 0.10 | 1.22 | 0.91 | 97 | 1003.5 |
| 20260506070731 | 9 | 9 | 3.2 | 9.7 | 0.10 | 1.22 | 0.91 | 97 | 1003.6 |
| 20260506070219 | 9 | 356 | 3.2 | 9.7 | 0.08 | 1.19 | 0.89 | 97 | 1003.5 |
| 20260506062250 | 9 | 352 | 3.2 | 9.7 | 0.08 | 1.14 | 0.84 | 98 | 1003.3 |
| 20260506061532 | 9 | 6 | 3.2 | 9.7 | 0.08 | 1.12 | 0.81 | 98 | 1003.2 |
| 20260506061032 | 9 | 14 | 3.2 | 6.4 | 0.08 | 1.12 | 0.81 | 98 | 1003.2 |
| 20260506060505 | 9 | 352 | 1.6 | 6.4 | 0.08 | 1.12 | 0.81 | 98 | 1003.2 |
| 20260506051403 | 8 | 63 | 1.6 | 4.8 | 0.05 | 1.07 | 0.74 | 97 | 1003.2 |
| 20260506050902 | 8 | 0 | 1.6 | 8.0 | 0.05 | 1.07 | 0.74 | 97 | 1003.2 |
| 20260506050402 | 8 | 332 | 1.6 | 8.0 | 0.08 | 1.07 | 0.71 | 97 | 1003.2 |
| 20260506044830 | 8 | 3 | 0.0 | 4.8 | 0.05 | 1.02 | 0.71 | 97 | 1003.1 |
| 20260506044326 | 8 | 345 | 1.6 | 6.4 | 0.05 | 1.02 | 0.71 | 97 | 1003.1 |
| 20260506044048 | 8 | 359 | 1.6 | 6.4 | 0.05 | 1.02 | 0.71 | 97 | 1003.1 |
| 20260506043323 | 8 | 8 | 1.6 | 8.0 | 0.08 | 1.02 | 0.71 | 97 | 1003.1 |
| 20260506042803 | 8 | 359 | 1.6 | 8.0 | 0.05 | 0.99 | 0.69 | 97 | 1003.1 |
| 20260506042232 | 8 | 25 | 1.6 | 8.0 | 0.08 | 0.99 | 0.69 | 97 | 1003.1 |
| 20260506041730 | 8 | 15 | 3.2 | 8.0 | 0.08 | 0.99 | 0.69 | 97 | 1003.1 |
| 20260506041458 | 8 | 48 | 3.2 | 6.4 | 0.10 | 0.99 | 0.69 | 97 | 1003.2 |
| 20260506041227 | 8 | 37 | 1.6 | 6.4 | 0.08 | 0.99 | 0.66 | 97 | 1003.2 |
| 20260506040230 | 8 | 51 | 1.6 | 3.2 | 0.10 | 0.99 | 0.66 | 97 | 1003.2 |
| 20260506035950 | 8 | 39 | 1.6 | 6.4 | 0.13 | 0.99 | 0.66 | 97 | 1003.2 |
| 20260506035230 | 8 | 359 | 3.2 | 3.2 | 0.13 | 0.99 | 0.66 | 97 | 1003.3 |
| 20260506034948 | 8 | 338 | 1.6 | 8.0 | 0.13 | 0.97 | 0.64 | 97 | 1003.2 |
| 20260506034219 | 8 | 15 | 1.6 | 6.4 | 0.15 | 0.97 | 0.64 | 97 | 1003.2 |
| 20260506033719 | 8 | 15 | 1.6 | 6.4 | 0.15 | 0.97 | 0.64 | 97 | 1003.3 |
| 20260506033432 | 8 | 20 | 1.6 | 6.4 | 0.15 | 0.94 | 0.61 | 97 | 1003.4 |
| 20260506032702 | 8 | 289 | 1.6 | 4.8 | 0.15 | 0.94 | 0.61 | 97 | 1003.4 |
| 20260506032202 | 8 | 19 | 1.6 | 6.4 | 0.15 | 0.91 | 0.61 | 97 | 1003.4 |
| 20260506031703 | 8 | 34 | 3.2 | 9.7 | 0.15 | 0.91 | 0.61 | 97 | 1003.3 |
| 20260506031147 | 8 | 347 | 1.6 | 9.7 | 0.15 | 0.89 | 0.58 | 97 | 1003.4 |
| 20260506030632 | 8 | 36 | 1.6 | 8.0 | 0.15 | 0.89 | 0.56 | 97 | 1003.4 |
| 20260506030130 | 8 | 13 | 3.2 | 8.0 | 0.15 | 0.89 | 0.56 | 97 | 1003.5 |
| 20260506025631 | 8 | 49 | 3.2 | 8.0 | 0.15 | 0.86 | 0.53 | 97 | 1003.6 |
| 20260506025105 | 8 | 7 | 3.2 | 9.7 | 0.15 | 0.86 | 0.53 | 97 | 1003.5 |
| 20260506024603 | 9 | 46 | 3.2 | 9.7 | 0.15 | 0.84 | 0.51 | 97 | 1003.6 |
| 20260506024032 | 9 | 0 | 3.2 | 8.0 | 0.13 | 0.81 | 0.51 | 97 | 1003.6 |
| 20260506023532 | 9 | 34 | 1.6 | 8.0 | 0.15 | 0.81 | 0.48 | 97 | 1003.6 |
| 20260506023030 | 9 | 21 | 1.6 | 4.8 | 0.13 | 0.79 | 0.48 | 97 | 1003.7 |
| 20260506022752 | 9 | 0 | 1.6 | 8.0 | 0.13 | 0.79 | 0.46 | 97 | 1003.7 |
| 20260506022032 | 9 | 1 | 3.2 | 8.0 | 0.13 | 0.79 | 0.46 | 97 | 1003.7 |
| 20260506021529 | 9 | 8 | 3.2 | 8.0 | 0.15 | 0.79 | 0.46 | 97 | 1003.7 |
| 20260506021031 | 9 | 158 | 1.6 | 8.0 | 0.13 | 0.76 | 0.43 | 97 | 1003.7 |
| 20260506020531 | 9 | 337 | 3.2 | 8.0 | 0.13 | 0.74 | 0.43 | 97 | 1003.7 |
| 20260506020005 | 9 | 323 | 3.2 | 6.4 | 0.13 | 0.74 | 0.43 | 97 | 1003.7 |
| 20260506015433 | 9 | 359 | 3.2 | 9.7 | 0.10 | 0.71 | 0.41 | 97 | 1003.7 |
| 20260506015416 | 9 | 340 | 3.2 | 8.0 | 0.10 | 0.71 | 0.38 | 97 | 1003.8 |
| 20260506014403 | 9 | 22 | 3.2 | 8.0 | 0.10 | 0.71 | 0.38 | 97 | 1003.7 |
| 20260506013902 | 9 | 359 | 1.6 | 8.0 | 0.10 | 0.71 | 0.36 | 97 | 1003.8 |
| 20260506013408 | 9 | 13 | 3.2 | 8.0 | 0.10 | 0.69 | 0.36 | 97 | 1003.8 |
| 20260506012903 | 9 | 356 | 3.2 | 8.0 | 0.08 | 0.66 | 0.33 | 97 | 1003.8 |
| 20260506012402 | 9 | 1 | 3.2 | 8.0 | 0.10 | 0.66 | 0.33 | 97 | 1003.8 |
| 20260506011831 | 9 | 326 | 3.2 | 6.4 | 0.10 | 0.66 | 0.33 | 97 | 1003.9 |
| 20260506011332 | 9 | 359 | 3.2 | 8.0 | 0.10 | 0.64 | 0.33 | 97 | 1003.9 |
| 20260506010831 | 9 | 19 | 3.2 | 8.0 | 0.13 | 0.64 | 0.33 | 97 | 1003.9 |
| 20260506010332 | 9 | 1 | 4.8 | 9.7 | 0.10 | 0.61 | 0.30 | 97 | 1003.9 |
| 20260506010248 | 9 | 58 | 3.2 | 9.7 | 0.13 | 0.61 | 0.30 | 97 | 1004.0 |
| 20260506005305 | 9 | 0 | 3.2 | 9.7 | 0.13 | 0.61 | 0.28 | 97 | 1004.0 |
| 20260506004802 | 9 | 20 | 3.2 | 9.7 | 0.10 | 0.61 | 0.28 | 97 | 1004.0 |
| 20260506004302 | 9 | 15 | 3.2 | 9.7 | 0.10 | 0.61 | 0.28 | 97 | 1004.0 |
| 20260506003804 | 9 | 345 | 3.2 | 8.0 | 0.10 | 0.58 | 0.25 | 97 | 1004.1 |
| 20260506003232 | 9 | 8 | 1.6 | 8.0 | 0.10 | 0.58 | 0.25 | 97 | 1004.1 |
| 20260506002727 | 9 | 1 | 3.2 | 8.0 | 0.10 | 0.58 | 0.23 | 97 | 1004.2 |
| 20260506002204 | 9 | 330 | 3.2 | 9.7 | 0.10 | 0.56 | 0.23 | 97 | 1004.3 |
| 20260506001642 | 9 | 19 | 3.2 | 9.7 | 0.08 | 0.53 | 0.23 | 97 | 1004.3 |
| 20260506001142 | 9 | 60 | 3.2 | 8.0 | 0.08 | 0.53 | 0.20 | 97 | 1004.4 |
| 20260506000634 | 10 | 356 | 3.2 | 8.0 | 0.08 | 0.51 | 0.20 | 97 | 1004.4 |
| 20260506000131 | 10 | 58 | 3.2 | 8.0 | 0.08 | 0.51 | 0.18 | 97 | 1004.5 |
| 20260505235602 | 10 | 8 | 3.2 | 9.7 | 0.08 | 0.51 | 0.18 | 97 | 1004.5 |
| 20260505235102 | 10 | 20 | 3.2 | 9.7 | 0.08 | 0.51 | 0.18 | 97 | 1004.5 |
| 20260505234603 | 10 | 30 | 3.2 | 9.7 | 0.10 | 0.51 | 0.18 | 97 | 1004.5 |
| 20260505234102 | 10 | 9 | 1.6 | 9.7 | 0.10 | 0.51 | 0.15 | 97 | 1004.6 |
| 20260505233602 | 10 | 359 | 1.6 | 8.0 | 0.10 | 0.48 | 0.15 | 97 | 1004.6 |
| 20260505233102 | 10 | 37 | 1.6 | 8.0 | 0.10 | 0.48 | 0.15 | 97 | 1004.6 |
| 20260505232604 | 10 | 35 | 3.2 | 11.3 | 0.10 | 0.46 | 0.15 | 97 | 1004.6 |
| 20260505232032 | 10 | 13 | 3.2 | 11.3 | 0.10 | 0.46 | 0.15 | 97 | 1004.7 |
| 20260505231532 | 10 | 30 | 3.2 | 14.5 | 0.13 | 0.46 | 0.15 | 97 | 1004.7 |
| 20260505231259 | 10 | 20 | 3.2 | 14.5 | 0.13 | 0.46 | 0.15 | 97 | 1004.7 |
| 20260505230530 | 10 | 348 | 1.6 | 8.0 | 0.13 | 0.43 | 0.13 | 97 | 1004.7 |
| 20260505230032 | 10 | 1 | 3.2 | 8.0 | 0.13 | 0.43 | 0.10 | 97 | 1004.7 |
| 20260505225754 | 10 | 126 | 3.2 | 8.0 | 0.10 | 0.43 | 0.10 | 97 | 1004.7 |
| 20260505225031 | 10 | 6 | 1.6 | 8.0 | 0.13 | 0.43 | 0.10 | 97 | 1004.8 |